When you browse on this site, cookies collect data to enhance your experience and personalize the content and advertising you see.
Visit our Privacy Policy to learn more. By continuing to use the site, you agree to this use of cookies and data.

Météo par heure à Binaqadi

Ce jour, 5 Juillet, Dimanche

Heure Température Précipitation Vent Pression Humidité
00:00 +29°C° 0 mm 2 m/s 754 mmHg 24%
01:00 +29°C° 0 mm 1 m/s 754 mmHg 26%
02:00 +28°C° 0 mm 1 m/s 753 mmHg 27%
03:00 +26°C° 0 mm 0 m/s 753 mmHg 31%
04:00 +28°C° 0 mm 1 m/s 754 mmHg 31%
05:00 +29°C° 0 mm 1 m/s 754 mmHg 30%
06:00 +29°C° 0 mm 1 m/s 754 mmHg 30%
07:00 +30°C° 0 mm 2 m/s 754 mmHg 29%
08:00 +31°C° 0 mm 2 m/s 754 mmHg 28%
09:00 +33°C° 0 mm 3 m/s 754 mmHg 27%
10:00 +34°C° 0 mm 3 m/s 753 mmHg 25%
11:00 +35°C° 0 mm 3 m/s 753 mmHg 23%
12:00 +36°C° 0 mm 3 m/s 753 mmHg 20%
13:00 +36°C° 0 mm 4 m/s 753 mmHg 19%
14:00 +36°C° 0 mm 4 m/s 752 mmHg 19%
15:00 +36°C° 0 mm 4 m/s 752 mmHg 18%
16:00 +36°C° 0 mm 3 m/s 752 mmHg 18%
17:00 +36°C° 0 mm 2 m/s 752 mmHg 18%
18:00 +36°C° 0 mm 2 m/s 752 mmHg 18%
19:00 +35°C° 0 mm 2 m/s 752 mmHg 20%
20:00 +34°C° 0 mm 3 m/s 752 mmHg 23%
21:00 +33°C° 0 mm 3 m/s 752 mmHg 25%
22:00 +31°C° 0 mm 2 m/s 752 mmHg 26%
23:00 +31°C° 0 mm 2 m/s 752 mmHg 28%

Demain, 6 Juillet, Lundi

Heure Température Précipitation Vent Pression Humidité
00:00 +30°C° 0 mm 1 m/s 752 mmHg 29%
01:00 +30°C° 0 mm 1 m/s 751 mmHg 30%
02:00 +29°C° 0 mm 2 m/s 751 mmHg 31%
03:00 +29°C° 0 mm 3 m/s 751 mmHg 32%
04:00 +29°C° 0 mm 3 m/s 751 mmHg 32%
05:00 +30°C° 0 mm 4 m/s 751 mmHg 32%
06:00 +30°C° 0 mm 4 m/s 751 mmHg 32%
07:00 +32°C° 0 mm 4 m/s 751 mmHg 31%
08:00 +33°C° 0 mm 4 m/s 751 mmHg 31%
09:00 +33°C° 0 mm 4 m/s 751 mmHg 30%
10:00 +34°C° 0 mm 4 m/s 751 mmHg 30%
11:00 +34°C° 0 mm 4 m/s 751 mmHg 31%
12:00 +35°C° 0 mm 4 m/s 751 mmHg 31%
13:00 +35°C° 0 mm 3 m/s 750 mmHg 30%
14:00 +35°C° 0 mm 3 m/s 750 mmHg 30%
15:00 +36°C° 0 mm 3 m/s 750 mmHg 30%
16:00 +35°C° 0 mm 3 m/s 750 mmHg 30%
17:00 +35°C° 0 mm 3 m/s 750 mmHg 30%
18:00 +35°C° 0 mm 2 m/s 750 mmHg 30%
19:00 +34°C° 0 mm 2 m/s 750 mmHg 30%
20:00 +33°C° 0 mm 1 m/s 750 mmHg 31%
21:00 +32°C° 0 mm 1 m/s 751 mmHg 32%
22:00 +32°C° 0 mm 1 m/s 751 mmHg 32%
23:00 +29°C° 0 mm 0 m/s 750 mmHg 33%

Après-demain, 7 Juillet, Mardi

Heure Température Précipitation Vent Pression Humidité
00:00 +29°C° 0 mm 0 m/s 750 mmHg 33%
01:00 +29°C° 0 mm 0 m/s 750 mmHg 34%
02:00 +28°C° 0 mm 0 m/s 750 mmHg 35%
03:00 +28°C° 0 mm 0 m/s 750 mmHg 35%
04:00 +28°C° 0 mm 0 m/s 750 mmHg 34%
05:00 +29°C° 0 mm 0 m/s 750 mmHg 32%
06:00 +30°C° 0 mm 0 m/s 750 mmHg 31%
07:00 +33°C° 0 mm 1 m/s 750 mmHg 28%
08:00 +35°C° 0 mm 2 m/s 750 mmHg 25%
09:00 +37°C° 0 mm 2 m/s 750 mmHg 22%
10:00 +37°C° 0 mm 3 m/s 750 mmHg 20%
11:00 +38°C° 0 mm 4 m/s 750 mmHg 19%
12:00 +40°C° 0 mm 4 m/s 750 mmHg 18%
13:00 +40°C° 0 mm 5 m/s 750 mmHg 18%
14:00 +40°C° 0 mm 5 m/s 750 mmHg 18%
15:00 +40°C° 0 mm 6 m/s 749 mmHg 19%
16:00 +39°C° 0 mm 5 m/s 749 mmHg 21%
17:00 +36°C° 0 mm 5 m/s 749 mmHg 23%
18:00 +35°C° 0 mm 4 m/s 749 mmHg 26%
19:00 +35°C° 0 mm 3 m/s 750 mmHg 26%
20:00 +34°C° 0 mm 3 m/s 750 mmHg 27%
21:00 +34°C° 0 mm 2 m/s 750 mmHg 28%
22:00 +32°C° 0 mm 2 m/s 750 mmHg 29%
23:00 +32°C° 0 mm 2 m/s 750 mmHg 29%

8 Juillet, Mercredi

Heure Température Précipitation Vent Pression Humidité
00:00 +31°C° 0 mm 2 m/s 749 mmHg 30%
01:00 +31°C° 0 mm 2 m/s 749 mmHg 31%
02:00 +30°C° 0 mm 2 m/s 749 mmHg 32%
03:00 +30°C° 0 mm 2 m/s 749 mmHg 33%
04:00 +30°C° 0 mm 2 m/s 749 mmHg 33%
05:00 +31°C° 0 mm 2 m/s 750 mmHg 32%
06:00 +31°C° 0 mm 2 m/s 750 mmHg 32%
07:00 +34°C° 0 mm 3 m/s 750 mmHg 28%
08:00 +35°C° 0 mm 3 m/s 750 mmHg 25%
09:00 +37°C° 0 mm 3 m/s 750 mmHg 21%
10:00 +37°C° 0 mm 4 m/s 750 mmHg 20%
11:00 +38°C° 0 mm 4 m/s 750 mmHg 19%
12:00 +40°C° 0 mm 5 m/s 750 mmHg 18%
13:00 +40°C° 0 mm 5 m/s 749 mmHg 17%
14:00 +40°C° 0 mm 4 m/s 749 mmHg 17%
15:00 +40°C° 0 mm 4 m/s 749 mmHg 16%
16:00 +40°C° 0 mm 4 m/s 749 mmHg 17%
17:00 +38°C° 0 mm 4 m/s 748 mmHg 19%
18:00 +37°C° 0 mm 4 m/s 748 mmHg 20%
19:00 +36°C° 0 mm 3 m/s 748 mmHg 21%
20:00 +35°C° 0 mm 3 m/s 749 mmHg 23%
21:00 +34°C° 0 mm 2 m/s 749 mmHg 25%
22:00 +34°C° 0 mm 2 m/s 749 mmHg 26%
23:00 +32°C° 0 mm 2 m/s 749 mmHg 27%

9 Juillet, Jeudi

Heure Température Précipitation Vent Pression Humidité
00:00 +32°C° 0 mm 2 m/s 748 mmHg 28%
01:00 +32°C° 0 mm 2 m/s 748 mmHg 29%
02:00 +31°C° 0 mm 2 m/s 748 mmHg 29%
03:00 +31°C° 0 mm 1 m/s 748 mmHg 29%
04:00 +32°C° 0 mm 2 m/s 748 mmHg 28%
05:00 +32°C° 0 mm 2 m/s 749 mmHg 27%
06:00 +34°C° 0 mm 3 m/s 749 mmHg 25%
07:00 +34°C° 0 mm 2 m/s 749 mmHg 25%
08:00 +35°C° 0 mm 2 m/s 749 mmHg 24%
09:00 +36°C° 0 mm 2 m/s 749 mmHg 24%
10:00 +36°C° 0.1 mm 3 m/s 749 mmHg 25%
11:00 +36°C° 0.1 mm 3 m/s 749 mmHg 27%
12:00 +37°C° 0.1 mm 3 m/s 749 mmHg 28%
13:00 +36°C° 0 mm 4 m/s 749 mmHg 29%
14:00 +36°C° 0 mm 4 m/s 748 mmHg 30%
15:00 +36°C° 0 mm 4 m/s 748 mmHg 31%
16:00 +35°C° 0 mm 5 m/s 748 mmHg 35%
17:00 +34°C° 0 mm 5 m/s 748 mmHg 38%
18:00 +33°C° 0 mm 6 m/s 748 mmHg 41%
19:00 +33°C° 0 mm 5 m/s 748 mmHg 44%
20:00 +32°C° 0 mm 5 m/s 749 mmHg 46%
21:00 +30°C° 0 mm 5 m/s 749 mmHg 49%
22:00 +30°C° 0 mm 5 m/s 749 mmHg 49%
23:00 +30°C° 0 mm 5 m/s 749 mmHg 49%

10 Juillet, Vendredi

Heure Température Précipitation Vent Pression Humidité
00:00 +30°C° 0 mm 5 m/s 749 mmHg 49%
01:00 +30°C° 0 mm 5 m/s 749 mmHg 50%
02:00 +30°C° 0 mm 5 m/s 749 mmHg 50%
03:00 +29°C° 0 mm 5 m/s 749 mmHg 51%
04:00 +30°C° 0 mm 5 m/s 749 mmHg 51%
05:00 +30°C° 0 mm 6 m/s 749 mmHg 51%
06:00 +30°C° 0 mm 6 m/s 750 mmHg 51%
07:00 +32°C° 0 mm 7 m/s 750 mmHg 49%
08:00 +33°C° 0 mm 7 m/s 750 mmHg 47%
09:00 +33°C° 0 mm 8 m/s 750 mmHg 44%
10:00 +34°C° 0 mm 9 m/s 750 mmHg 45%
11:00 +34°C° 0 mm 9 m/s 750 mmHg 47%
12:00 +34°C° 0 mm 9 m/s 750 mmHg 48%
13:00 +34°C° 0 mm 10 m/s 750 mmHg 48%
14:00 +34°C° 0 mm 10 m/s 750 mmHg 48%
15:00 +33°C° 0 mm 10 m/s 749 mmHg 48%
16:00 +33°C° 0 mm 11 m/s 749 mmHg 48%
17:00 +33°C° 0 mm 11 m/s 749 mmHg 48%
18:00 +33°C° 0 mm 11 m/s 749 mmHg 49%
19:00 +33°C° 0 mm 11 m/s 750 mmHg 47%
20:00 +33°C° 0 mm 11 m/s 750 mmHg 46%
21:00 +33°C° 0 mm 11 m/s 750 mmHg 44%
22:00 +33°C° 0 mm 10 m/s 750 mmHg 45%
23:00 +33°C° 0 mm 10 m/s 750 mmHg 46%
Voir plus